[[{"header":{"parameterUnit":"m.s-1","parameterCategory":1,"la1":30.2991,"la2":30.254,"lo1":-89.0895,"lo2":-89.0444,"dy":0.0017,"dx":0.0017,"nx":28,"ny":28,"refTime":"2025-09-14T21:00:00:Z","depth":0,"parameterNumber":2,"parameterNumberName":"U-component_of_WINDS"},"data":[0,0,0,0,0,0,0,0,0,0,0,0,0,0,0,0,0,0,0,0,0,0,0,0,0,0,0,0,0,0,0,0,0,0,0,0,0,0,0,0,0,0,0,0,0,0,0,0,0,0,0,0,0,0,0,0,0,0,-0.8542,-0.8542,0,-0.8508,-0.8508,-0.8507,-0.8468,-0.8468,-0.8467,-0.8467,-0.843,-0.8429,-0.8429,0,0,0,0,0,0,0,0,0,0,0,0,0,-0.8573,-0.8573,-0.8542,-0.8542,-0.8541,-0.8508,-0.8508,-0.8507,-0.8469,-0.8468,-0.8467,-0.8466,-0.843,-0.8429,-0.8429,0,0,0,0,0,0,0,0,0,0,0,0,0,-0.8551,-0.8573,-0.8542,-0.8518,-0.8516,-0.8508,-0.8508,-0.8507,-0.8469,-0.8468,-0.8467,-0.8466,-0.843,-0.843,-0.8429,-0.8442,0,0,-0.8427,-0.8427,0,0,0,0,0,0,0,0,-0.8553,-0.855,-0.8522,-0.852,-0.8517,-0.8492,-0.8505,-0.8485,-0.8469,-0.8486,-0.8467,-0.8466,-0.8451,-0.8449,-0.8444,-0.844,-0.8439,-0.8427,-0.8426,-0.8426,-0.8426,0,0,0,0,0,0,0,-0.8554,-0.8551,-0.8529,-0.8522,-0.8519,-0.8509,-0.8505,-0.8501,-0.8474,-0.8485,-0.8482,-0.8479,-0.8449,-0.8445,-0.8443,-0.8438,-0.8427,-0.8426,-0.8426,-0.8425,-0.8444,-0.8445,0,0,0,0,0,0,-0.856,-0.8553,-0.853,-0.8528,-0.8533,-0.8509,-0.8504,-0.8501,-0.8474,-0.8469,-0.8479,-0.8477,-0.8446,-0.8444,-0.8441,-0.8455,-0.8426,-0.8425,-0.8425,-0.8443,-0.8444,-0.8445,0,0,0,0,0,0,-0.856,-0.8558,-0.8531,-0.854,-0.8535,-0.8509,-0.8505,-0.85,-0.8496,-0.847,-0.8465,-0.848,-0.8446,-0.8442,-0.8442,-0.8453,-0.8425,-0.8425,-0.8442,-0.8443,-0.8444,-0.8482,0,0,0,0,0,0,-0.8561,-0.8558,-0.8563,-0.854,-0.8535,-0.8533,-0.8506,-0.85,-0.8495,-0.8491,-0.8469,-0.8464,-0.8445,-0.8444,-0.8442,-0.8452,-0.8424,-0.8441,-0.8442,-0.8444,-0.848,-0.8484,-0.8489,0,0,0,0,0,-0.8563,-0.8575,-0.8564,-0.8561,-0.8541,-0.8534,-0.8531,-0.8509,-0.8496,-0.85,-0.8484,-0.8465,-0.8453,-0.8444,-0.8441,-0.8451,-0.844,-0.8442,-0.8444,-0.8478,-0.8484,-0.8488,0,0,0,0,0,0,-0.8599,-0.8571,-0.8559,-0.8564,-0.8551,-0.8527,-0.8532,-0.8516,-0.8507,-0.8503,-0.8476,-0.8471,-0.8475,-0.8463,-0.8454,-0.8463,-0.8443,-0.8445,-0.847,-0.8475,-0.848,-0.8482,-0.8423,0,0,0,0,0,-0.8608,-0.8605,-0.858,-0.8587,-0.8582,-0.8558,-0.8554,-0.8539,-0.8525,-0.8519,-0.8503,-0.8489,-0.8482,-0.8478,-0.8471,-0.8478,-0.8473,-0.8484,-0.8489,-0.8492,-0.8494,-0.8497,-0.8502,-0.8451,-0.8451,-0.8451,0,0,-0.8625,-0.861,-0.8609,-0.8594,-0.8583,-0.858,-0.8554,-0.8552,-0.855,-0.8519,-0.8518,-0.8505,-0.8489,-0.8493,-0.8494,-0.8483,-0.8507,-0.8495,-0.8498,-0.8497,-0.8499,-0.8504,-0.8508,-0.8453,-0.8453,-0.8452,0,0,-0.8656,-0.8644,-0.8648,-0.8638,-0.8622,-0.8606,-0.8607,-0.8586,-0.8577,-0.8576,-0.8552,-0.8549,-0.8538,-0.8527,-0.852,-0.8549,-0.853,-0.8547,-0.8569,-0.8573,-0.8577,-0.858,-0.859,-0.8594,-0.8548,-0.8549,-0.8549,0,-0.8679,-0.8675,-0.8652,-0.8652,-0.8646,-0.8619,-0.8623,-0.8614,-0.8596,-0.8592,-0.8581,-0.8567,-0.8554,-0.8555,-0.8562,-0.8558,-0.8558,-0.8548,-0.8578,-0.8581,-0.8584,-0.8593,-0.8597,-0.8551,-0.855,-0.855,-0.855,0,-0.8704,-0.8702,-0.8707,-0.8691,-0.8686,-0.8688,-0.8666,-0.8663,-0.8648,-0.8634,-0.8633,-0.8617,-0.8606,-0.8605,-0.859,-0.8604,-0.8599,-0.8584,-0.8563,-0.8591,-0.8599,-0.8603,-0.8554,-0.8553,-0.8552,-0.8552,0,0,-0.8755,-0.8728,-0.873,-0.8723,-0.8703,-0.8701,-0.8702,-0.8691,-0.869,-0.8678,-0.8678,-0.867,-0.8656,-0.8649,-0.8633,-0.8636,-0.8659,-0.862,-0.862,-0.8628,-0.8673,-0.8684,-0.8689,-0.8648,-0.8648,-0.8649,-0.8675,0,-0.8781,-0.8781,-0.8762,-0.8768,-0.8765,-0.874,-0.8741,-0.8729,-0.8716,-0.8712,-0.8697,-0.8692,-0.8674,-0.8669,-0.8672,-0.8656,-0.8668,-0.8654,-0.8647,-0.8647,-0.8651,-0.8693,-0.8704,-0.8729,-0.8678,-0.8678,-0.8678,0,-0.8811,-0.8803,-0.8808,-0.879,-0.8788,-0.8789,-0.8778,-0.8775,-0.8761,-0.8751,-0.8744,-0.8726,-0.8725,-0.8708,-0.8706,-0.8697,-0.8693,-0.8685,-0.8686,-0.8683,-0.8663,-0.8691,-0.8736,-0.874,-0.8683,-0.8683,-0.8682,0,-0.8847,-0.8837,-0.8839,-0.8834,-0.8812,-0.8813,-0.8804,-0.879,-0.8785,-0.8776,-0.8773,-0.8764,-0.8758,-0.8752,-0.8732,-0.8721,-0.8733,-0.8713,-0.8724,-0.8725,-0.8727,-0.8727,-0.8772,-0.8726,-0.8726,-0.8726,-0.8726,0,-0.8878,-0.8882,-0.8855,-0.8856,-0.886,-0.8838,-0.8843,-0.8831,-0.8819,-0.8817,-0.8796,-0.8794,-0.8769,-0.8765,-0.875,-0.8751,-0.8749,-0.8741,-0.8736,-0.8742,-0.8743,-0.8738,-0.8736,-0.8727,-0.8727,-0.8727,-0.8727,0,-0.8918,-0.89,-0.89,-0.888,-0.8875,-0.8879,-0.8862,-0.8862,-0.8849,-0.8847,-0.8845,-0.8824,-0.8818,-0.8798,-0.8787,-0.8777,-0.8783,-0.8775,-0.8787,-0.8784,-0.8796,-0.8795,-0.8839,-0.8844,-0.8796,-0.8797,-0.8797,0,-0.8938,-0.8941,-0.8921,-0.8919,-0.8911,-0.8908,-0.8903,-0.8882,-0.8878,-0.8864,-0.8866,-0.8858,-0.8851,-0.8843,-0.8827,-0.8818,-0.881,-0.8826,-0.8808,-0.8814,-0.8809,-0.8809,-0.8809,-0.8829,-0.883,-0.883,-0.8831,0,-0.8975,-0.8967,-0.8961,-0.8953,-0.8949,-0.8941,-0.8932,-0.8931,-0.8908,-0.8905,-0.8899,-0.8894,-0.8884,-0.8877,-0.8866,-0.8856,-0.8839,-0.8837,-0.8839,-0.8844,-0.8851,-0.8847,-0.8797,-0.8835,-0.8835,-0.8834,-0.8834,-0.8834,-0.9005,-0.9007,-0.8994,-0.8988,-0.898,-0.8972,-0.8972,-0.8959,-0.8954,-0.8944,-0.8932,-0.8928,-0.8915,-0.8899,-0.8891,-0.8887,-0.8878,-0.8881,-0.8882,-0.8882,-0.8885,-0.8853,-0.8885,-0.8885,-0.8885,-0.8885,-0.8885,0,-0.9041,-0.9032,-0.9028,-0.9016,-0.9012,-0.8998,-0.8988,-0.8985,-0.8982,-0.8972,-0.8966,-0.896,-0.8953,-0.8937,-0.8929,-0.8929,-0.8921,-0.8927,-0.8926,-0.8925,-0.8894,-0.8893,-0.8934,-0.8934,-0.8934,-0.8934,-0.8934,-0.8934,-0.9059,-0.9061,-0.9051,-0.9048,-0.9039,-0.9035,-0.903,-0.9023,-0.9015,-0.9009,-0.9004,-0.8994,-0.8981,-0.8972,-0.8966,-0.8961,-0.8958,-0.8967,-0.896,-0.8931,-0.8927,-0.8922,-0.8921,-0.8967,-0.8967,-0.8991,-0.8991,-0.8991]},{"header":{"parameterUnit":"m.s-1","parameterCategory":1,"la1":30.2991,"la2":30.254,"lo1":-89.0895,"lo2":-89.0444,"dy":0.0017,"dx":0.0017,"nx":28,"ny":28,"refTime":"2025-09-14T21:00:00:Z","depth":0,"parameterNumber":3,"parameterNumberName":"V-component_of_WINDS"},"data":[0,0,0,0,0,0,0,0,0,0,0,0,0,0,0,0,0,0,0,0,0,0,0,0,0,0,0,0,0,0,0,0,0,0,0,0,0,0,0,0,0,0,0,0,0,0,0,0,0,0,0,0,0,0,0,0,0,0,1.6152,1.6152,0,1.6098,1.6097,1.6097,1.6113,1.6114,1.6115,1.6116,1.6056,1.6053,1.605,0,0,0,0,0,0,0,0,0,0,0,0,0,1.6266,1.6264,1.6152,1.6152,1.6151,1.6098,1.6097,1.6096,1.6113,1.6114,1.6116,1.6117,1.6056,1.6053,1.605,0,0,0,0,0,0,0,0,0,0,0,0,0,1.6215,1.6263,1.6153,1.6153,1.6152,1.6098,1.6097,1.6096,1.6113,1.6114,1.6116,1.6118,1.6057,1.6054,1.605,1.599,0,0,1.6037,1.6035,0,0,0,0,0,0,0,0,1.6218,1.621,1.6154,1.6153,1.6152,1.6114,1.6115,1.606,1.6112,1.6127,1.6116,1.6118,1.6073,1.6068,1.6054,1.5987,1.5984,1.6037,1.6034,1.6033,1.6031,0,0,0,0,0,0,0,1.6221,1.6213,1.6131,1.6153,1.6152,1.6154,1.6149,1.6105,1.6091,1.6126,1.6127,1.6121,1.6073,1.6058,1.6053,1.5984,1.6037,1.6033,1.6031,1.6029,1.5864,1.5862,0,0,0,0,0,0,1.6226,1.6216,1.6132,1.6129,1.619,1.6151,1.6145,1.6124,1.6092,1.6089,1.612,1.6122,1.6064,1.6057,1.605,1.5977,1.6033,1.6029,1.6027,1.5866,1.5864,1.5862,0,0,0,0,0,0,1.6228,1.6218,1.6135,1.6173,1.6162,1.6147,1.6124,1.6122,1.6107,1.6087,1.6084,1.6106,1.6065,1.6056,1.6005,1.5975,1.6027,1.6023,1.5868,1.5865,1.5863,1.5831,0,0,0,0,0,0,1.6231,1.6219,1.6197,1.6172,1.616,1.6091,1.6122,1.612,1.6101,1.6103,1.6074,1.607,1.6066,1.6011,1.6001,1.5971,1.602,1.5871,1.5867,1.5864,1.5835,1.5828,1.5822,0,0,0,0,0,1.6235,1.619,1.6196,1.6186,1.6133,1.6089,1.6082,1.6079,1.6098,1.6075,1.6062,1.6071,1.5981,1.6006,1.5994,1.5963,1.5873,1.5868,1.5864,1.5838,1.5829,1.5822,0,0,0,0,0,0,1.6209,1.6186,1.6193,1.6138,1.6116,1.6092,1.6063,1.607,1.6041,1.6044,1.604,1.6033,1.5981,1.5967,1.5995,1.5903,1.5929,1.5923,1.5913,1.5905,1.5898,1.5902,1.6017,0,0,0,0,0,1.6198,1.6166,1.6147,1.61,1.6089,1.6078,1.6059,1.6059,1.6035,1.6025,1.6008,1.5983,1.5949,1.5927,1.5894,1.5834,1.5827,1.5807,1.58,1.5795,1.5788,1.5754,1.5744,1.5847,1.5847,1.5847,0,0,1.6172,1.6156,1.6136,1.6095,1.6077,1.6043,1.607,1.6033,1.6006,1.6019,1.5969,1.5957,1.5928,1.5872,1.5846,1.5859,1.5758,1.5789,1.5785,1.5781,1.5748,1.5738,1.573,1.5844,1.5845,1.5845,0,0,1.6108,1.6093,1.6052,1.6035,1.6009,1.6003,1.5993,1.5968,1.5961,1.5912,1.592,1.5889,1.583,1.581,1.5792,1.5721,1.5727,1.5711,1.5674,1.5641,1.5633,1.5626,1.5599,1.5589,1.5704,1.5704,1.5704,0,1.6079,1.6029,1.603,1.5992,1.5973,1.5985,1.5942,1.5925,1.5889,1.5875,1.589,1.5818,1.58,1.5738,1.5721,1.5707,1.5694,1.5712,1.5635,1.5627,1.562,1.5594,1.5584,1.5702,1.5703,1.5703,1.5703,0,1.5994,1.5959,1.5929,1.5896,1.5874,1.5834,1.5827,1.5804,1.5806,1.5797,1.5747,1.5726,1.5689,1.5675,1.5676,1.5613,1.5622,1.5636,1.5662,1.5608,1.5584,1.5574,1.5699,1.57,1.5701,1.5701,0,0,1.591,1.5879,1.5867,1.5852,1.5825,1.5797,1.5758,1.5723,1.5703,1.5679,1.5644,1.5595,1.5608,1.5587,1.5586,1.5557,1.5501,1.5575,1.5574,1.556,1.5428,1.5416,1.5405,1.5506,1.5504,1.5503,1.543,0,1.5842,1.5773,1.5773,1.5708,1.5675,1.5687,1.5652,1.5631,1.5622,1.5592,1.5581,1.5546,1.5567,1.5554,1.5527,1.5513,1.5474,1.5519,1.5471,1.547,1.5476,1.5392,1.5379,1.5311,1.5421,1.5419,1.5418,0,1.5753,1.5727,1.5659,1.5637,1.5623,1.5592,1.556,1.5532,1.5508,1.5503,1.5481,1.5485,1.5443,1.5472,1.5413,1.5444,1.5425,1.5415,1.5413,1.5406,1.5439,1.5381,1.529,1.5279,1.5403,1.5404,1.5405,0,1.5695,1.5644,1.5597,1.5584,1.5557,1.5534,1.5522,1.55,1.5479,1.5452,1.5438,1.5405,1.5386,1.536,1.5354,1.5377,1.5295,1.5324,1.5288,1.5288,1.5267,1.5268,1.517,1.5259,1.5259,1.526,1.526,0,1.5618,1.5576,1.5571,1.5541,1.5494,1.5494,1.5447,1.5436,1.5417,1.5384,1.5393,1.5362,1.5358,1.5325,1.5321,1.5271,1.5263,1.5257,1.5256,1.5255,1.5255,1.524,1.5244,1.5257,1.5257,1.5258,1.5258,0,1.5545,1.554,1.5489,1.5469,1.5463,1.5429,1.541,1.5382,1.5375,1.5334,1.5324,1.5312,1.5274,1.5267,1.5222,1.5219,1.516,1.5164,1.5168,1.5167,1.5131,1.5134,1.5017,1.5001,1.5103,1.5102,1.5101,0,1.5495,1.5463,1.544,1.5419,1.5406,1.5373,1.5353,1.5352,1.533,1.53,1.5275,1.5239,1.5209,1.5149,1.5135,1.5101,1.5103,1.5065,1.5098,1.5098,1.51,1.5101,1.5097,1.5057,1.5056,1.5055,1.5055,0,1.5405,1.5405,1.5376,1.5346,1.5321,1.5297,1.5274,1.5257,1.5252,1.5227,1.519,1.5167,1.5123,1.5086,1.5052,1.5037,1.5044,1.5045,1.5034,1.5032,1.5034,1.503,1.5148,1.5047,1.5048,1.5048,1.5049,1.5049,1.5341,1.5313,1.5292,1.5259,1.5242,1.5221,1.5193,1.5183,1.5152,1.5116,1.5118,1.5076,1.5052,1.5008,1.4991,1.4958,1.497,1.4955,1.4951,1.4946,1.4942,1.5042,1.4952,1.4952,1.4952,1.4953,1.4953,0,1.525,1.5238,1.5208,1.5176,1.515,1.5162,1.5137,1.5114,1.5078,1.5056,1.5028,1.4984,1.4949,1.4933,1.4898,1.4874,1.4876,1.4865,1.4865,1.4861,1.4934,1.4946,1.4863,1.4863,1.4863,1.4863,1.4863,1.4863,1.52,1.5153,1.5149,1.5093,1.5081,1.5042,1.5026,1.5006,1.4989,1.494,1.4912,1.4902,1.4883,1.4846,1.4814,1.481,1.4796,1.4782,1.4779,1.4847,1.4856,1.4865,1.4876,1.4779,1.4779,1.4709,1.4708,1.4707]}]]